Weather History for NFNA - January, 2011

Change the Weather History Date:

Thursday, January 27, 2011

  Actual Average Record
Temperature  
Mean Temperature 82 °F -  
Max Temperature 90 °F - - ()
Min Temperature 75 °F - - ()
Cooling Degree Days 18    
Growing Degree Days 32 (Base 50)    
Moisture  
Dew Point 76 °F    
Average Humidity 83    
Maximum Humidity 100    
Minimum Humidity 54    
Precipitation  
Precipitation 0.31 in - - ()
Sea Level Pressure  
Sea Level Pressure 29.72 in    
Wind  
Wind Speed 3 mph ()    
Max Wind Speed 12 mph    
Max Gust Speed -    
Visibility 12.0 miles    
Events Rain    
T = Trace of Precipitation, MM = Missing Value Source: Averaged Metar Reports

Daily Weather History Graph

Daily Weather History Graph

Search for Another Location

Airport or City:

Trip Planner

Search our weather history database for the weather conditions in past years. The results will help you decide how hot, cold, wet, or windy it might be!

Date:

Astronomy

Jan. 27, 2011 Rise Set
Actual Time 6:49 AM FJST 7:47 PM FJST
Civil Twilight 6:26 AM FJST 8:10 PM FJST
Nautical Twilight 5:58 AM FJST 8:37 PM FJST
Astronomical Twilight 5:30 AM FJST 9:05 PM FJST
Moon 12:27 AM FJST (1/27) 1:44 PM FJST (1/27)
Length of Visible Light 13h 44m
Length of Day
12h 57m
Last Quarter, 46% of the Moon is Illuminated
Jan 27
Last Quarter
Feb 3
New
Feb 11
First Quarter
Feb 18
Full
Feb 25
Last Quarter

Hourly Weather History & Observations

Time (FJST) Temp. Heat Index Dew Point Humidity Pressure Visibility Wind Dir Wind Speed Gust Speed Precip Events Conditions
12:00 AM 77.0 °F - 77.0 °F 100% 29.74 in 31.1 mi NW 4.6 mph - N/A   Partly Cloudy
1:00 AM 77 °F - 76 °F 95% 29.74 in 31 mi Calm Calm - -   Partly Cloudy
1:00 AM 77.0 °F - 75.2 °F 94% 29.74 in 31.1 mi Calm Calm - N/A   Partly Cloudy
2:00 AM 77.0 °F - 75.2 °F 94% 29.71 in 31.1 mi Calm Calm - N/A   Partly Cloudy
3:00 AM 75.2 °F - 75.2 °F 100% 29.68 in 31.1 mi Calm Calm - N/A   Partly Cloudy
4:00 AM 75.2 °F - 75.2 °F 100% 29.68 in 31.1 mi Calm Calm - N/A   Partly Cloudy
5:00 AM 75.2 °F - 75.2 °F 100% 29.68 in 31.1 mi Calm Calm - N/A   Partly Cloudy
6:00 AM 75.2 °F - 75.2 °F 100% 29.68 in 31.1 mi Calm Calm - N/A   Partly Cloudy
7:00 AM 75 °F - 74 °F 97% 29.71 in 31 mi Calm Calm - -   Partly Cloudy
7:00 AM 75.2 °F - 75.2 °F 100% 29.71 in 31.1 mi Calm Calm - N/A   Scattered Clouds
8:00 AM 77.0 °F - 75.2 °F 94% 29.71 in 31.1 mi Calm Calm - N/A   Partly Cloudy
9:00 AM 84.2 °F 94.1 °F 77.0 °F 79% 29.74 in 31.1 mi Calm Calm - N/A   Partly Cloudy
10:00 AM 86.0 °F 99.3 °F 78.8 °F 79% 29.74 in 31.1 mi NE 11.5 mph - N/A   Mostly Cloudy
11:00 AM 86.0 °F 95.1 °F 75.2 °F 70% 29.74 in 31.1 mi NNE 11.5 mph - N/A   Mostly Cloudy
12:00 PM 87.8 °F 99.7 °F 77.0 °F 70% 29.71 in 31.1 mi NE 11.5 mph - N/A   Scattered Clouds
1:00 PM 90 °F - 76 °F 54% 29.72 in 31 mi East 9.2 mph - -   Partly Cloudy
1:00 PM 89.6 °F 99.8 °F 75.2 °F 62% 29.71 in 31.1 mi East 9.2 mph - N/A   Scattered Clouds
2:00 PM 86.0 °F 93.4 °F 73.4 °F 66% 29.68 in 31.1 mi East 5.8 mph - N/A   Scattered Clouds
4:00 PM 87 °F - 75 °F 61% 29.70 in 31 mi East 5.8 mph - -   Partly Cloudy
4:00 PM 86.0 °F 95.1 °F 75.2 °F 70% 29.68 in 31.1 mi East 5.8 mph - N/A   Scattered Clouds
5:00 PM 86.0 °F 95.1 °F 75.2 °F 70% 29.68 in 31.1 mi East 5.8 mph - N/A   Scattered Clouds
6:00 PM 84.2 °F 90.9 °F 73.4 °F 70% 29.71 in 31.1 mi East 5.8 mph - N/A   Scattered Clouds
7:00 PM 83 °F - 74 °F 69% 29.73 in 31 mi East 5.8 mph - -   Partly Cloudy
7:00 PM 82.4 °F 89.5 °F 75.2 °F 79% 29.71 in 31.1 mi East 5.8 mph - N/A   Mostly Cloudy
8:00 PM 82.4 °F 89.5 °F 75.2 °F 79% 29.74 in 31.1 mi East 5.8 mph - N/A   Mostly Cloudy
9:00 PM 80.6 °F 87.1 °F 77.0 °F 89% 29.74 in 31.1 mi East 5.8 mph - N/A   Scattered Clouds
10:00 PM 80 °F - 77 °F 88% 29.77 in 12 mi Calm Calm - -   Partly Cloudy
10:00 PM 80.6 °F 87.1 °F 77.0 °F 89% 29.77 in 24.9 mi Calm Calm - N/A   Mostly Cloudy
11:00 PM 78.8 °F - 75.2 °F 89% 29.77 in 24.9 mi Calm Calm - N/A Rain Light Rain Showers